Starlink 6298

operational
NORAD ID: 56391 Int'l Des: 2023-061 Owner: SPXS Country: US Constellation: starlink
LEOCIRCULAR

About Starlink 6298

Description loading...

Live Position

Loading 3D Globe...

Upcoming Passes

Altitude History

Altitude vs Time

uPlot chart will show altitude changes over time

Two-Line Element Set

1 56391U 23061T 25305.35375656 .00001569 00000-0 13120-3 0 9992
2 56391 43.0083 174.4565 0002505 280.2889 79.7671 15.02547913137459
Epoch: Nov 1, 2025 • Age: 21 hours

Current Status

Altitude 558.0 km
Velocity 7.58 km/s
Sub-Earth Point 5.62°N, 55.02°E
Launch Date May 4, 2023
Age 2.4 years
Type internet

Technical Details

Classification Payload
Mass 305.00 kg
Dry Mass 290.00 kg
Total Mass 305.00 kg
Length 0.20 m
Diameter 2.80 m
Span 9.00 m
Shape Box + pan
Manufacturer SPXS
Bus Type Starlink
Phase Status In Orbit
Owner/State SPXS/US

Large Constellations

Loading constellations...